This is the latest recevied weather packets stored in our database for station/object N7IGG. If no packets are shown the sender has not sent any weather packets the latest 10 day(s).
| Time | Temp. | Humidity | Pressure | Rain* | Wind** | Luminosity | Snow |
|---|---|---|---|---|---|---|---|
| 1777604231 | 18.89° C | 64% | 1015.6 hPa | 0 mm | - | 10 W/m² | - |
| 1777603928 | 19.44° C | 63% | 1015.7 hPa | 0 mm | - | 12 W/m² | - |
| 1777603625 | 19.44° C | 64% | 1015.6 hPa | 0 mm | - | 16 W/m² | - |
| 1777603321 | 19.44° C | 62% | 1015.8 hPa | 0 mm | - | 21 W/m² | - |
| 1777603016 | 20° C | 62% | 1015.6 hPa | 0 mm | - | 26 W/m² | - |
| 1777602711 | 20° C | 62% | 1016 hPa | 0 mm | - | 31 W/m² | - |
| 1777602406 | 20° C | 63% | 1015.8 hPa | 0 mm | - | 42 W/m² | - |
| 1777602103 | 20° C | 62% | 1015.5 hPa | 0 mm | - | 45 W/m² | - |
| 1777601798 | 20.56° C | 60% | 1015.5 hPa | 0 mm | - | 51 W/m² | - |
| 1777601493 | 21.11° C | 60% | 1015.7 hPa | 0 mm | - | 76 W/m² | - |
| 1777601189 | 20.56° C | 61% | 1015.7 hPa | 0 mm | - | 93 W/m² | - |
| 1777600887 | 20° C | 63% | 1015.7 hPa | 0 mm | - | 98 W/m² | - |
| 1777600582 | 20° C | 64% | 1015.8 hPa | 0 mm | - | 125 W/m² | - |
| 1777600279 | 19.44° C | 65% | 1015.8 hPa | 0 mm | - | 139 W/m² | - |
| 1777599974 | 19.44° C | 63% | 1015.7 hPa | 0 mm | - | 150 W/m² | - |
| 1777599671 | 20.56° C | 62% | 1015.8 hPa | 0 mm | - | 161 W/m² | - |
| 1777599367 | 20.56° C | 61% | 1015.6 hPa | 0 mm | - | 176 W/m² | - |
| 1777599065 | 20° C | 62% | 1015.8 hPa | 0 mm | - | 171 W/m² | - |
| 1777598762 | 20° C | 62% | 1015.7 hPa | 0 mm | - | 210 W/m² | - |
| 1777598457 | 21.11° C | 58% | 1015.9 hPa | 0 mm | - | 204 W/m² | - |
| 1777598156 | 21.67° C | 59% | 1016.1 hPa | 0 mm | - | 239 W/m² | - |
| 1777597851 | 21.11° C | 61% | 1015.9 hPa | 0 mm | - | 248 W/m² | - |
| 1777597550 | 19.44° C | 63% | 1016.1 hPa | 0 mm | - | 241 W/m² | - |
| 1777597247 | 20° C | 59% | 1016 hPa | 0 mm | - | 285 W/m² | - |
| 1777596942 | 20.56° C | 61% | 1016.2 hPa | 0 mm | - | 273 W/m² | - |
* Rain latest hour (hover to see other rain measurements)
** Current wind speed in m/s (hover to see current wind gust speed)